Theta_e
305 305 305 305 305 305 305 305 305 306 306 307 307 307 306 307 307 307 306 306 305 305 304 303 302 300 299 297 297 296 296 297 297 298 298 299 300 300 301 302 303 304 304 304 304 304 304 304 305 305 306 307 307 308 308 308 308 309 309 309 309 309 310 310 310 310 310 310 311 311 312 313 313 313 313 313 313 312 312 312 311 311 311 311 312 312
305 305 304 305 305 305 305 305 305 306 306 306 306 306 306 306 306 307 306 306 305 304 303 302 301 300 298 297 296 295 295 295 295 296 296 297 297 298 299 300 301 302 303 303 303 303 302 302 302 303 304 305 306 306 307 307 308 308 308 308 309 309 309 309 309 310 310 310 310 310 311 311 312 312 312 312 312 312 312 311 311 311 311 311 311 311
305 304 304 304 305 305 305 305 305 306 306 306 306 306 306 306 306 306 306 305 304 304 303 302 301 299 298 297 296 295 294 294 294 294 294 295 295 296 296 297 299 300 301 301 302 302 301 301 301 301 301 302 303 304 305 306 307 307 307 308 308 308 308 309 309 309 309 309 309 310 310 310 311 311 311 312 312 311 311 311 311 311 311 310 310 310
305 304 304 305 305 305 305 305 305 305 306 306 306 306 306 306 306 306 306 305 304 303 302 301 300 299 297 296 295 294 294 294 293 293 293 293 294 294 294 295 296 297 298 299 300 301 301 301 300 300 299 299 300 301 303 304 305 306 307 307 307 308 308 308 308 308 309 309 309 309 309 309 310 310 310 310 311 311 311 311 310 310 310 310 310 310
304 304 304 304 305 305 305 305 305 305 305 305 305 305 305 305 306 306 306 305 303 302 301 300 299 297 296 295 294 293 293 293 293 293 293 293 293 293 293 294 294 295 296 297 298 299 300 300 300 300 300 299 298 299 299 301 303 304 305 306 306 307 307 307 307 308 308 308 308 308 309 309 309 309 309 309 310 310 310 310 310 310 309 309 309 309
304 304 304 304 304 305 305 305 305 305 305 305 305 304 304 305 305 306 306 305 304 302 301 299 298 296 295 294 293 292 292 293 293 293 294 294 294 294 294 294 294 294 294 295 296 297 298 299 299 300 300 300 299 298 298 298 299 301 302 304 305 305 306 306 306 307 307 307 307 308 308 308 308 308 308 309 309 309 309 309 310 309 309 308 308 308
304 303 304 304 304 304 304 305 305 305 305 305 305 304 304 305 305 305 306 305 304 302 300 297 296 295 294 293 292 292 292 292 293 293 294 294 295 295 295 295 294 294 294 294 295 295 296 296 297 298 299 299 299 299 299 298 298 298 299 300 302 303 304 304 305 305 305 306 306 306 307 307 307 307 308 308 308 308 308 308 309 309 309 308 308 307
303 303 303 303 303 303 304 304 305 305 305 305 305 304 304 305 305 305 305 304 302 300 298 296 294 293 293 292 292 292 292 292 293 293 294 294 295 295 295 295 295 295 295 295 295 295 295 295 295 296 297 297 298 298 299 298 298 297 297 298 299 300 301 302 302 303 303 304 304 305 305 305 306 306 306 307 307 307 307 307 307 307 308 308 307 307
302 302 302 302 302 303 303 304 304 304 305 305 305 304 304 305 305 304 303 301 299 297 295 294 293 292 292 292 292 292 292 293 293 293 294 294 294 295 295 295 295 295 295 295 295 295 295 295 295 295 295 295 296 296 297 297 297 297 297 297 297 297 298 298 299 300 301 301 302 302 303 303 304 304 305 305 305 306 306 306 306 306 307 307 307 307
302 302 302 302 302 302 303 303 303 304 304 304 304 304 304 305 305 304 302 298 296 294 293 293 292 292 291 291 291 292 292 293 293 293 294 294 294 295 295 295 295 295 295 295 295 295 295 295 295 294 294 294 294 295 295 295 296 296 296 297 297 297 297 297 297 297 298 298 299 299 300 301 301 302 303 303 303 304 304 305 305 305 305 306 306 307
301 301 301 301 301 302 302 302 303 303 304 304 304 304 304 304 304 303 300 296 294 293 292 292 291 291 291 291 291 292 292 292 293 293 294 294 294 294 294 294 294 294 294 295 295 295 295 295 295 294 294 294 293 294 294 294 294 294 295 295 296 296 296 296 296 296 296 296 296 296 297 298 299 299 300 301 301 302 302 303 303 304 304 304 305 305
300 300 300 300 301 301 301 302 302 303 303 303 304 304 304 304 303 301 298 295 293 292 291 291 291 291 291 291 292 292 292 293 293 293 294 294 294 294 294 294 294 294 294 294 294 294 294 294 294 294 294 293 293 293 293 293 293 293 293 294 294 294 295 295 296 296 296 295 295 295 295 295 296 296 297 298 299 299 300 301 301 302 302 303 303 304
300 300 300 300 301 301 301 301 302 302 302 303 303 304 304 303 301 299 296 294 293 292 291 291 291 291 291 291 292 292 293 293 294 294 294 294 294 294 293 293 293 293 293 293 293 294 294 294 294 294 294 293 293 293 293 293 293 293 293 293 293 293 293 294 294 295 295 295 295 295 295 294 294 295 295 295 296 296 297 298 298 299 300 300 301 302
300 300 300 300 300 300 300 300 300 300 301 301 302 303 303 301 299 297 295 294 293 292 291 291 291 291 291 291 292 293 293 294 294 295 295 294 294 294 294 293 293 293 293 293 293 293 293 294 294 294 293 293 293 293 293 293 293 293 293 293 293 293 293 293 293 293 294 294 294 294 294 294 294 294 294 294 294 294 295 295 296 296 297 297 298 299
299 300 300 300 300 300 300 300 300 300 299 300 300 301 301 300 298 297 295 294 293 292 291 291 291 290 291 291 292 293 293 294 295 295 295 295 294 294 294 294 293 293 293 293 293 293 293 293 293 293 293 293 293 293 293 293 293 292 292 292 292 292 292 292 292 293 293 293 293 293 294 294 294 294 294 294 294 294 294 294 294 294 295 295 296 296
300 300 300 300 300 300 300 300 300 299 298 298 298 298 299 299 298 297 295 294 293 292 291 291 291 291 291 291 292 292 293 294 294 295 295 294 294 294 294 294 293 293 293 293 293 293 293 293 293 293 293 293 293 293 293 293 292 293 293 292 292 292 292 292 292 292 292 292 292 292 293 293 293 293 293 293 294 293 293 293 293 293 293 293 294 294
300 300 300 300 300 300 300 300 299 298 297 296 297 297 298 298 298 297 296 294 293 292 291 291 291 291 290 291 291 292 293 293 293 294 294 294 293 293 293 293 293 294 293 293 293 293 293 293 293 293 293 293 293 293 293 292 292 292 292 292 292 292 292 292 292 292 292 292 292 292 292 292 292 292 293 293 293 293 293 293 293 293 293 293 293 293
299 300 300 300 300 300 299 298 298 297 297 297 297 297 298 298 298 297 295 294 292 292 291 291 291 291 290 290 291 291 292 292 292 292 293 293 293 292 293 293 293 293 293 293 293 293 293 293 293 293 293 293 293 293 292 292 292 292 292 292 292 292 292 292 292 292 292 292 292 292 292 292 292 292 292 292 292 292 292 293 293 293 293 293 293 293
298 299 299 299 299 299 298 297 297 297 297 297 297 297 297 297 296 295 294 293 292 292 291 291 291 291 291 290 290 291 291 291 291 292 293 293 293 292 293 293 293 293 293 293 293 293 294 293 293 293 293 293 293 292 292 292 292 292 292 292 292 292 292 292 292 292 292 292 292 292 292 292 292 292 292 292 292 292 292 292 292 292 292 292 292 293
298 298 298 299 299 298 298 297 297 296 296 296 296 296 296 295 295 294 293 292 292 291 291 291 291 291 291 291 291 290 291 291 291 292 292 293 293 293 293 293 293 293 294 294 294 294 294 294 293 293 293 293 293 293 292 292 292 292 292 292 292 292 292 292 292 292 292 292 292 292 292 292 292 292 292 292 292 292 292 292 292 292 292 292 292 292
297 298 298 298 298 298 297 297 296 296 296 295 296 296 296 296 295 294 293 292 292 291 291 291 291 291 291 291 291 290 291 291 291 291 292 293 293 293 293 293 293 293 294 294 294 294 294 294 293 293 293 293 293 293 292 292 292 292 291 292 292 292 292 292 292 292 292 291 291 291 291 291 291 291 291 291 292 292 292 292 292 292 292 292 292 292
296 296 297 296 296 296 296 296 296 296 295 296 296 296 296 296 296 295 293 293 292 292 291 291 291 291 291 291 290 291 291 291 291 291 292 293 293 293 293 293 293 293 293 294 294 294 294 293 293 293 293 293 293 293 293 292 292 292 291 291 291 292 292 292 291 291 291 291 291 291 291 291 291 291 291 291 291 292 292 292 292 292 292 292 292 292
293 294 294 294 294 294 294 295 295 295 295 295 295 295 295 295 295 294 293 293 292 292 292 291 291 291 291 291 290 290 290 291 291 291 292 292 293 293 293 293 292 293 293 293 293 293 293 293 293 292 292 292 293 293 293 293 292 292 292 291 291 291 291 291 291 291 291 291 291 291 291 291 291 291 291 291 291 291 292 292 292 292 292 292 292 292
292 292 292 292 292 292 292 292 293 293 293 293 293 293 293 293 293 293 293 292 292 292 292 292 291 291 290 290 290 290 290 290 291 291 291 292 292 292 292 292 292 292 293 293 293 293 293 293 292 292 292 292 293 293 293 293 293 292 292 292 291 291 291 291 291 291 291 291 291 291 291 291 291 291 291 291 291 291 292 292 292 292 292 292 291 291
291 291 291 290 291 291 291 291 291 291 291 291 291 291 292 292 292 292 291 291 291 291 291 291 291 290 290 290 289 289 290 290 290 290 291 291 291 291 291 291 292 292 292 293 293 293 292 292 292 292 292 292 293 293 293 293 293 293 293 292 292 291 291 291 291 290 290 290 291 291 291 291 291 291 291 291 291 291 291 291 291 291 291 291 291 291
290 290 290 291 291 291 291 291 290 290 290 290 290 290 291 291 291 291 290 290 290 290 291 291 290 290 290 290 289 289 289 289 290 289 289 290 290 291 291 291 291 292 292 293 293 293 293 293 293 293 293 293 293 293 293 294 294 293 293 293 292 292 291 291 290 290 290 290 290 290 291 291 291 291 291 291 291 291 291 291 291 291 291 291 291 291
291 291 291 291 291 291 291 291 290 290 290 290 290 290 291 290 291 291 290 290 290 290 291 291 290 290 291 290 290 289 289 289 289 289 289 289 290 290 291 291 291 292 292 293 293 293 293 293 293 293 293 293 293 293 294 294 294 294 293 293 292 292 291 291 291 290 290 290 290 290 290 290 291 291 291 291 291 291 291 291 291 291 291 291 291 291
291 291 291 291 291 291 291 291 291 291 291 291 291 291 291 291 291 291 291 291 291 291 291 291 291 291 292 291 291 290 290 290 289 289 290 290 290 290 291 291 291 292 292 293 293 294 294 293 293 293 293 293 293 293 293 293 293 293 293 293 292 292 292 291 291 291 290 290 290 290 290 290 290 291 291 291 291 291 291 291 291 291 290 290 290 290
290 290 290 290 290 290 291 291 291 291 291 291 292 292 292 292 292 292 292 292 292 292 292 292 292 292 292 292 292 292 291 290 290 290 290 290 290 290 291 291 292 292 292 292 294 294 294 294 294 294 294 293 293 293 293 293 293 293 293 293 292 292 292 291 291 291 291 291 291 290 290 290 290 290 290 290 291 290 290 290 290 290 290 290 290 290
290 290 290 290 290 290 290 290 290 290 290 291 291 291 292 292 292 292 292 293 293 292 292 292 292 292 292 292 292 292 291 290 290 291 291 291 290 291 291 292 292 291 291 292 293 294 295 294 294 294 294 294 293 293 293 292 292 292 293 293 292 292 292 292 291 291 291 291 291 291 291 290 290 290 290 290 290 290 290 290 290 290 290 290 290 290
289 289 289 289 289 289 289 289 289 290 290 290 290 290 291 291 291 292 292 292 292 292 292 292 292 292 292 292 292 291 290 290 291 291 291 291 291 291 292 292 292 291 291 291 291 292 293 293 294 295 295 294 294 294 293 293 293 292 293 293 292 292 292 292 292 292 291 291 291 291 291 291 290 290 290 290 290 290 290 290 290 290 290 290 290 290
289 289 289 289 289 289 289 289 289 289 289 289 289 290 290 290 290 291 291 291 291 291 291 291 291 291 291 291 291 290 290 290 291 291 291 291 291 291 292 292 292 291 291 291 290 290 290 291 293 295 295 295 295 295 294 294 293 293 293 293 293 292 292 292 292 291 291 291 291 291 291 291 290 290 290 290 290 290 290 290 290 290 290 290 290 289
288 288 288 288 288 288 288 289 289 289 289 289 289 289 289 289 289 290 290 290 290 291 291 291 291 291 291 291 291 290 290 289 290 291 291 291 290 291 291 291 291 291 291 291 290 289 289 290 292 294 295 295 295 295 295 294 294 293 293 293 293 293 292 292 292 292 291 291 291 291 291 290 290 290 290 290 290 290 290 290 290 290 290 290 289 289
288 288 288 288 288 288 288 288 288 288 288 288 288 288 288 288 288 289 289 289 289 289 290 290 290 290 290 290 290 291 290 290 290 290 290 290 290 290 291 291 291 291 291 291 290 290 290 291 291 293 294 295 295 295 295 294 294 294 294 294 293 293 292 292 292 292 291 291 291 291 290 290 290 290 290 290 290 290 290 290 289 289 289 289 289 289
287 287 287 287 287 287 287 287 287 287 287 287 287 287 288 288 288 288 288 288 288 288 288 289 289 289 289 290 290 290 290 290 290 290 290 290 290 290 290 291 291 291 291 291 291 290 291 291 291 292 292 294 294 295 294 294 294 294 294 293 293 292 292 292 292 291 291 291 291 291 290 290 290 290 290 290 290 290 290 289 289 289 289 289 289 289
286 286 286 286 287 287 287 287 287 287 287 287 287 287 287 287 287 287 287 287 287 287 288 288 288 288 288 289 289 289 290 290 290 290 290 290 289 290 290 290 290 290 291 291 290 290 290 291 291 291 291 292 293 294 294 294 294 294 293 293 293 292 292 291 291 291 291 291 291 291 290 290 290 290 290 290 290 290 290 289 289 289 289 289 289 289
286 286 286 286 286 286 286 286 286 286 286 286 286 286 286 287 287 287 287 287 287 287 287 287 287 287 288 288 288 288 288 289 289 289 289 289 289 289 290 290 290 290 290 290 290 290 290 290 291 291 291 292 292 293 293 294 294 294 293 293 293 293 292 291 291 291 291 291 291 291 291 290 290 290 290 290 290 290 289 289 289 289 289 289 289 289
286 286 285 285 285 285 285 285 286 286 286 286 286 286 286 286 286 286 286 286 286 286 286 287 287 287 287 287 287 288 288 288 288 288 288 288 289 289 289 289 289 290 290 290 290 290 290 290 290 291 291 292 292 292 292 293 293 293 293 293 293 293 292 292 291 291 291 290 290 290 290 290 290 290 290 290 290 289 289 289 289 289 289 289 289 289
285 285 285 285 285 285 285 285 285 285 285 285 285 285 285 286 286 286 286 286 286 286 286 286 286 286 286 287 287 287 287 287 287 288 288 288 288 288 288 288 289 289 289 289 289 289 289 290 290 290 291 291 292 292 292 292 292 292 292 293 293 293 292 292 291 291 290 290 290 290 290 290 290 290 290 290 289 289 289 289 289 289 289 289 289 289
285 285 285 285 285 285 285 285 285 285 285 285 285 285 285 285 285 285 285 285 285 285 285 286 286 286 286 286 286 287 287 287 287 287 287 287 287 287 288 288 288 288 288 289 289 289 289 289 289 290 290 290 291 291 292 292 292 292 292 292 293 293 293 292 291 291 290 289 289 290 290 290 290 290 290 289 289 289 289 289 289 289 289 289 289 289
285 285 285 285 285 285 285 285 285 285 285 285 285 285 285 285 285 285 285 285 285 285 285 285 285 285 286 286 286 286 286 286 286 286 287 287 287 287 287 287 287 287 288 288 288 288 289 289 289 289 290 290 290 290 291 291 291 291 291 291 292 292 292 292 291 290 289 289 289 289 289 289 289 289 289 289 289 289 289 289 289 289 289 289 289 289
285 285 285 285 285 285 285 285 285 285 285 284 284 284 284 284 284 284 284 284 284 284 284 285 285 285 285 286 286 286 286 286 286 286 286 286 286 286 286 286 286 286 287 287 288 288 288 288 288 289 289 289 289 289 290 290 290 290 290 290 290 291 291 291 291 290 289 289 289 289 289 289 289 289 289 289 289 289 288 288 288 288 288 288 288 288
285 285 284 284 284 285 285 285 285 285 285 284 284 284 284 284 284 284 283 284 284 284 284 284 284 284 285 285 285 285 285 285 285 285 285 285 285 285 285 285 285 286 286 286 287 287 287 287 288 288 288 288 288 288 289 289 290 290 290 290 289 290 290 291 290 290 289 289 288 288 288 288 288 288 288 288 288 288 288 288 288 288 288 288 288 288
284 284 284 284 284 284 284 284 284 284 284 284 284 284 284 284 283 283 283 283 283 283 283 283 284 284 284 284 285 285 285 285 285 285 285 285 285 285 285 285 285 285 285 286 286 286 286 287 287 287 287 287 287 288 288 288 289 289 289 289 289 289 289 289 289 289 289 289 288 288 288 288 288 288 288 288 288 288 288 288 288 288 288 288 288 288
283 283 283 284 284 284 284 284 284 284 284 284 284 284 283 283 283 283 283 283 283 283 283 283 283 284 284 284 284 285 285 285 284 284 284 284 284 284 284 285 285 285 285 285 285 285 286 286 286 286 286 286 287 287 287 287 288 289 289 289 288 288 288 288 288 288 288 288 288 288 288 288 287 288 288 288 288 288 288 288 288 288 288 288 288 288
283 283 283 283 283 283 283 283 283 284 284 284 284 284 283 283 283 283 282 282 282 282 283 283 283 283 284 284 284 284 284 284 284 284 284 284 283 283 284 284 284 285 285 285 285 285 285 285 285 286 286 286 286 286 287 287 287 288 288 288 288 288 288 288 288 288 288 288 288 287 287 287 287 287 287 287 287 287 288 288 288 288 288 288 288 288
283 283 283 283 283 283 283 283 283 283 284 284 284 284 283 283 283 282 282 282 282 282 282 282 283 283 283 283 283 283 283 283 284 284 283 283 283 283 284 284 284 284 284 285 285 285 285 285 285 285 285 285 286 286 286 287 287 287 287 287 287 287 287 287 287 287 287 287 287 287 287 287 287 287 287 287 287 287 287 287 288 287 287 287 287 287
282 282 282 282 282 282 282 283 283 283 283 283 283 283 283 283 282 282 282 282 282 282 282 282 282 282 282 282 282 282 282 283 283 283 283 283 283 283 283 284 284 284 284 284 284 285 285 285 285 285 285 285 285 285 286 286 286 287 287 287 287 287 287 287 287 287 287 287 287 286 286 286 286 286 286 286 287 287 287 287 287 287 287 287 287 287
282 282 282 282 282 282 282 282 283 283 283 283 283 283 283 283 282 282 282 282 282 282 282 282 282 282 282 282 282 282 282 282 282 282 282 282 283 283 283 283 283 284 284 284 284 284 284 285 285 285 285 285 285 285 285 286 286 286 286 286 286 286 287 287 287 286 286 286 286 286 286 286 286 286 286 286 286 286 287 287 287 287 287 287 287 287
282 282 282 282 282 282 282 283 283 283 283 283 283 283 282 282 282 282 282 281 281 281 281 281 281 282 282 282 282 282 282 282 282 282 282 282 282 283 283 283 283 283 283 283 283 284 284 284 285 285 285 285 285 285 285 285 286 286 286 286 286 286 286 286 286 286 286 286 286 286 286 286 286 286 286 286 286 286 286 286 287 287 287 287 287 287
282 282 282 282 282 282 283 283 283 283 283 283 282 282 282 282 282 281 281 281 281 281 281 281 282 282 282 282 282 282 282 282 281 282 282 282 282 282 282 282 282 282 283 283 283 283 283 283 284 284 285 285 285 285 285 285 285 285 286 286 286 286 286 286 286 286 286 286 285 285 285 285 285 285 285 285 285 286 286 286 286 287 287 287 287 287
Wind_Speed
19 20 20 19 19 19 19 18 17 15 14 13 12 11 10 10 11 11 11 11 12 12 12 12 12 12 12 13 13 14 14 14 13 13 14 14 14 14 14 14 13 13 13 13 13 14 14 14 15 15 15 15 15 14 14 13 12 12 11 11 11 10 8 7 6 6 6 6 6 7 7 7 7 7 6 5 6 8 13 15 16 17 16 15 14 13
20 20 20 20 19 18 18 17 16 14 12 12 11 11 10 10 11 11 11 11 11 12 12 12 12 13 13 14 14 14 14 14 14 14 13 13 13 13 13 13 13 12 12 12 12 12 13 13 13 14 14 14 14 14 14 13 13 12 11 11 10 10 9 8 7 6 6 6 6 6 6 6 7 7 6 5 4 6 9 11 12 13 13 13 12 11
19 20 21 21 20 19 18 16 15 14 12 12 12 11 10 10 11 11 11 11 11 12 13 13 13 14 14 15 15 15 15 15 15 14 14 14 14 13 13 13 13 12 12 12 12 12 12 12 12 12 13 13 13 13 13 13 13 12 12 11 10 10 9 9 8 7 6 6 6 6 6 6 6 6 6 5 4 4 5 7 9 10 10 10 9 9
19 20 21 21 21 20 18 17 15 14 13 13 13 12 11 11 11 11 11 11 12 13 13 14 14 15 15 15 15 16 16 15 15 15 15 14 14 14 14 14 13 13 13 13 12 12 12 12 12 12 12 12 12 12 12 12 12 12 12 11 11 10 10 9 9 8 8 7 7 7 6 6 6 6 6 6 6 5 4 5 6 8 10 10 9 7
18 19 20 21 21 21 20 18 16 14 14 14 14 13 12 11 11 11 11 12 12 13 14 15 15 16 16 16 16 16 15 15 15 15 15 15 15 15 15 14 14 14 14 13 13 13 13 13 13 13 12 12 12 12 12 12 12 11 11 11 11 11 10 10 9 9 9 8 8 8 7 7 7 7 7 7 7 7 7 6 5 6 10 13 12 9
18 18 19 20 21 21 21 19 17 15 14 14 14 13 12 11 11 11 11 12 13 13 14 15 16 16 17 16 16 15 15 15 15 15 15 15 15 15 15 15 15 15 15 14 14 14 14 14 13 13 13 13 13 12 12 11 11 11 11 11 11 11 10 10 10 10 9 9 9 9 8 8 8 8 8 8 8 8 8 7 6 5 6 12 14 12
19 19 19 19 20 21 21 20 18 16 15 14 14 13 13 12 12 12 12 12 13 13 14 15 16 17 17 17 16 15 14 14 14 14 14 14 14 15 15 15 15 15 15 15 15 15 14 14 14 14 14 14 13 13 13 12 12 12 11 11 11 11 11 10 10 10 10 10 9 9 9 9 9 9 8 8 8 8 8 8 8 7 6 8 11 12
19 19 18 18 19 20 20 20 18 16 15 14 14 13 12 12 12 12 13 13 13 14 14 15 15 16 16 16 16 15 15 14 13 13 14 14 14 14 15 15 15 15 15 15 15 15 14 14 14 14 14 14 14 14 13 13 13 12 12 12 12 11 11 11 11 11 10 10 10 10 10 9 9 9 9 9 9 9 9 8 9 8 8 7 7 8
18 17 16 17 18 19 20 20 18 17 15 14 13 13 13 13 13 13 13 14 14 15 16 16 15 15 15 15 15 15 15 14 13 13 13 13 14 14 14 15 15 15 15 15 15 15 15 14 14 14 14 14 14 14 14 14 14 13 13 13 13 13 12 12 12 12 12 11 11 11 11 10 10 10 9 9 9 9 9 8 9 9 9 8 8 7
16 15 14 15 17 18 19 19 19 17 15 14 13 13 13 14 14 13 13 13 13 15 16 17 16 15 14 14 14 15 15 15 14 14 13 13 13 14 14 14 15 15 15 15 15 15 15 14 13 13 13 14 14 14 14 14 14 14 14 14 14 13 13 13 13 13 13 13 12 12 12 11 11 11 10 10 9 9 9 9 9 9 9 9 9 9
15 14 13 14 15 17 18 18 18 17 16 14 13 13 14 15 15 14 13 12 12 14 15 16 17 16 15 14 13 13 14 14 14 14 14 14 13 14 14 14 14 15 15 15 15 15 15 15 14 13 13 13 14 14 14 14 14 14 14 14 14 14 14 14 14 14 14 14 14 13 13 13 13 12 12 11 11 10 10 10 9 9 9 9 9 10
13 13 13 14 16 17 18 18 18 17 15 14 13 14 15 15 15 14 13 13 13 14 15 16 16 16 16 15 14 13 13 13 13 14 14 14 13 13 14 14 14 15 15 15 15 15 16 15 14 13 13 13 14 14 14 14 14 14 14 14 14 14 14 14 14 14 14 14 14 14 14 14 14 14 13 13 12 12 11 11 11 10 10 10 10 10
12 12 13 15 16 17 18 18 17 16 14 13 13 14 14 14 14 14 14 14 15 16 16 16 16 16 16 15 14 14 13 13 13 14 14 14 14 14 13 14 14 15 15 15 15 15 16 16 15 14 14 14 14 14 15 14 14 14 14 14 14 15 15 15 15 15 15 15 15 15 15 15 15 15 14 14 14 13 13 13 12 12 12 11 11 11
10 11 12 13 14 15 15 14 14 13 12 13 13 14 13 13 13 14 14 15 16 16 17 17 16 16 16 16 16 15 14 13 13 14 14 15 15 15 14 14 14 15 15 15 15 15 16 16 16 15 14 14 14 15 15 15 15 14 14 14 14 14 15 15 15 15 15 15 15 15 15 15 15 15 15 15 15 14 14 14 14 14 13 13 12 12
11 11 11 11 11 11 11 10 10 10 10 12 13 13 13 13 13 14 15 16 16 17 17 17 16 16 16 16 16 16 15 15 15 14 14 15 15 16 16 15 15 15 16 16 16 16 16 16 16 16 15 15 15 15 15 15 15 15 15 14 14 14 15 15 15 15 15 15 15 15 15 15 15 15 15 15 15 15 15 15 15 14 14 14 14 13
12 12 11 11 10 10 9 8 7 8 10 12 13 13 13 13 14 15 16 16 17 17 17 17 17 16 16 16 17 17 17 16 16 16 16 16 16 17 17 17 16 16 16 16 16 16 16 17 16 16 16 15 15 15 16 16 16 15 15 15 15 15 15 15 15 15 15 15 15 15 15 15 15 15 15 15 15 15 15 15 15 15 15 15 14 14
12 11 11 12 11 10 8 7 8 9 10 12 13 14 14 14 15 15 16 16 17 17 18 18 18 17 16 17 17 18 18 17 18 18 18 17 17 18 18 18 17 16 16 17 17 17 17 17 16 16 16 16 16 16 16 16 16 16 16 16 15 15 15 15 15 15 15 15 15 15 15 15 15 15 15 15 15 15 15 15 15 15 15 15 15 15
11 11 11 11 10 9 7 8 9 10 11 12 13 14 14 15 15 15 15 16 16 17 17 17 18 17 17 17 18 19 19 19 19 19 19 19 19 19 19 19 18 17 17 17 17 17 17 17 16 16 16 16 16 16 16 17 17 17 17 16 16 16 15 15 15 15 15 15 15 15 15 15 15 15 15 15 15 15 15 15 15 15 16 16 16 16
10 10 11 10 9 8 8 9 10 11 12 13 13 13 13 14 14 14 15 15 16 16 16 17 17 17 17 17 18 19 19 19 19 20 20 20 19 19 20 20 19 19 18 18 18 18 18 17 17 16 16 16 16 16 16 16 17 17 17 17 17 16 16 16 15 15 15 15 15 15 15 15 15 15 15 15 15 15 15 15 15 15 15 16 16 16
8 10 11 10 9 9 10 10 11 11 11 12 13 13 12 12 13 13 14 15 15 16 16 16 16 17 17 17 18 19 19 20 20 20 20 20 20 20 21 21 21 21 20 19 19 19 19 18 17 17 17 17 16 16 16 16 16 17 17 17 17 17 16 16 16 15 15 15 15 15 15 15 15 15 15 15 15 15 15 15 15 15 15 15 16 16
6 8 9 10 10 10 11 10 10 11 11 12 13 13 13 13 13 13 14 14 14 15 15 16 16 17 17 18 18 19 20 20 20 21 21 21 20 20 20 21 22 22 22 21 21 21 21 20 19 18 18 18 17 16 16 16 16 17 17 17 17 17 16 16 16 16 16 16 16 16 15 15 15 15 15 15 15 15 15 15 15 15 15 15 15 16
4 5 6 7 8 9 10 10 11 12 12 13 14 15 15 15 14 14 14 14 14 15 15 16 16 17 17 18 18 19 20 20 20 20 20 21 20 19 20 21 22 23 23 23 23 23 23 22 21 20 20 20 19 18 16 16 16 16 16 17 16 16 16 16 16 16 16 16 16 16 16 16 16 16 16 16 16 16 16 16 15 15 15 15 16 16
4 4 5 6 6 7 8 9 10 11 12 12 13 13 14 14 14 14 14 15 15 16 16 16 17 17 17 17 18 19 20 20 20 20 20 20 20 20 20 21 22 23 24 24 25 25 24 23 23 22 22 22 21 20 18 17 16 16 16 16 16 16 16 16 16 16 16 16 16 16 16 16 16 17 17 17 17 17 17 16 16 16 16 16 16 16
3 4 4 5 5 6 6 7 8 9 9 10 10 10 11 12 13 13 14 15 16 16 17 17 17 17 16 16 17 17 19 20 20 20 20 21 21 21 20 21 22 23 24 24 25 25 25 24 24 24 24 24 23 22 20 18 17 16 16 15 15 15 16 16 16 16 16 17 17 16 16 16 17 17 17 17 17 17 17 17 17 17 17 17 17 17
4 4 4 5 5 6 6 7 7 8 8 8 8 9 10 11 11 12 13 14 15 16 17 17 17 16 16 16 16 17 18 19 20 20 21 21 22 22 21 22 23 24 24 24 24 25 25 24 24 24 25 25 25 24 23 21 19 18 16 16 15 15 16 16 16 16 16 16 16 16 16 16 16 16 17 17 17 17 17 17 17 17 17 17 17 17
6 6 6 6 6 6 7 7 7 7 8 8 9 9 10 11 11 12 13 14 15 15 16 17 17 17 17 16 16 16 17 19 21 21 21 22 22 22 22 22 23 24 25 25 25 25 25 25 25 25 25 26 26 26 25 23 22 20 18 17 17 16 16 16 16 16 16 16 16 16 16 16 16 16 16 16 16 16 16 17 17 17 17 17 17 17
8 8 8 8 8 8 8 8 8 9 9 9 10 10 11 12 12 13 13 13 14 15 16 17 18 18 18 18 16 15 17 19 21 22 22 22 22 23 22 22 23 25 26 26 26 26 26 26 26 26 26 26 26 26 25 25 24 23 22 21 20 19 18 18 17 16 16 16 16 16 16 16 16 16 16 16 16 16 16 16 16 16 16 17 17 17
10 10 10 10 10 11 11 11 11 11 12 12 12 12 12 13 13 14 14 14 14 16 17 17 17 18 19 19 18 17 18 19 21 22 22 22 23 23 23 23 24 26 27 28 28 28 28 28 28 27 27 26 26 26 25 25 25 25 25 24 23 22 21 20 19 17 16 16 16 16 16 16 16 16 15 15 15 15 15 15 15 15 16 16 16 16
10 10 11 12 12 12 13 13 13 14 14 14 14 14 14 14 15 15 15 15 15 16 17 16 17 18 19 20 20 19 19 19 19 20 21 22 22 23 23 24 25 27 28 29 29 30 29 29 29 28 28 27 27 26 26 26 27 28 28 27 26 25 24 22 21 19 18 17 16 16 16 16 16 16 15 15 15 15 14 14 15 15 15 15 15 16
8 9 10 11 12 13 13 14 14 15 16 16 16 17 16 16 16 16 16 15 15 16 16 16 16 17 18 19 19 19 17 17 18 20 21 22 23 24 24 25 26 27 27 28 30 31 31 30 29 29 29 29 28 28 28 28 29 29 30 29 28 27 26 24 23 21 20 18 17 17 16 16 16 16 16 15 15 15 14 14 14 14 14 15 15 15
8 9 10 11 12 13 13 14 14 15 16 16 17 18 18 18 18 18 18 17 17 17 17 16 17 17 18 18 18 17 16 17 20 21 22 22 23 24 24 25 25 26 26 26 28 29 30 30 30 30 31 31 31 31 30 30 30 30 30 30 29 28 27 25 24 23 22 20 19 18 18 17 16 16 16 16 15 15 15 15 15 15 15 15 15 15
10 11 12 12 13 13 14 14 14 15 15 15 16 17 18 19 19 20 20 19 19 19 18 18 18 18 18 18 18 17 17 19 22 23 23 23 24 24 24 24 25 25 25 25 26 25 24 27 31 32 33 33 33 33 32 31 31 31 31 30 30 29 28 27 26 25 24 22 21 20 19 18 17 16 16 16 16 16 16 16 15 15 15 15 14 14
13 13 14 14 14 15 15 15 15 15 15 15 15 16 17 18 19 19 20 20 20 20 20 20 19 19 19 19 19 19 19 20 22 24 24 24 24 25 25 25 25 25 25 25 26 26 25 29 32 34 34 34 34 34 33 32 32 32 32 31 31 30 29 28 27 27 25 24 22 21 20 19 18 17 17 16 16 16 16 16 16 16 15 15 15 14
14 15 15 15 15 15 15 15 16 16 16 15 15 16 16 17 17 18 18 19 20 20 21 21 21 21 21 21 22 21 20 20 21 23 24 25 26 26 26 26 27 27 27 27 27 28 29 31 32 34 35 35 35 34 33 33 33 33 33 32 31 30 30 30 29 29 27 26 24 22 21 20 19 18 17 17 16 16 16 16 16 16 16 15 15 15
14 15 15 15 15 15 15 15 15 15 15 15 15 15 15 16 16 16 17 17 18 19 20 21 21 22 22 23 24 24 24 23 22 23 25 26 27 28 28 28 28 28 28 28 28 29 30 31 32 33 34 36 36 35 34 33 33 33 33 32 31 30 29 30 30 30 29 27 26 24 22 21 20 19 18 17 16 16 16 16 16 16 16 16 16 15
13 14 14 14 15 15 15 15 15 14 14 14 14 14 14 15 15 15 16 16 17 18 19 19 20 21 22 23 24 25 26 25 25 25 26 27 28 28 29 29 29 28 28 29 29 30 31 32 33 34 34 35 36 36 35 34 33 33 33 32 30 29 28 28 29 29 29 28 27 26 24 22 21 20 19 18 17 17 16 15 15 15 16 16 16 16
13 13 13 13 14 14 14 14 14 14 14 14 14 14 14 15 15 15 16 16 16 17 18 18 19 20 21 22 23 24 25 25 25 26 26 27 27 28 29 30 30 29 28 29 29 30 31 32 34 35 35 35 36 36 36 35 34 34 33 32 30 29 28 27 27 28 28 29 28 27 25 24 23 21 20 19 18 17 16 16 15 15 15 16 16 16
13 13 13 13 13 13 13 13 13 13 13 14 14 14 15 15 15 16 16 16 16 17 17 17 18 18 19 20 20 21 22 23 23 24 25 26 26 27 28 28 29 29 29 28 29 29 30 31 33 34 35 36 36 36 36 35 35 35 34 33 32 30 29 27 26 26 27 28 28 27 27 25 24 23 22 21 19 18 17 16 15 15 15 15 15 15
13 13 13 14 14 14 14 13 12 12 13 13 14 15 15 15 16 16 16 16 16 17 17 17 17 17 18 18 18 19 19 20 21 21 22 23 23 24 25 26 27 27 27 27 28 28 29 30 31 33 34 36 36 37 36 35 35 34 34 34 33 32 30 28 26 25 25 26 26 27 27 26 25 24 23 22 21 19 18 17 16 15 15 15 15 15
13 13 13 14 15 16 15 14 13 13 13 14 14 15 15 16 16 16 16 16 16 16 16 17 17 18 18 18 18 18 18 18 18 19 19 20 20 21 22 23 24 25 25 26 26 27 27 28 30 31 32 33 35 36 36 35 35 34 33 33 33 32 31 28 26 25 25 25 25 26 26 26 26 25 24 23 22 20 19 18 17 17 16 16 16 15
13 13 14 15 17 17 17 16 15 15 14 15 15 15 16 16 16 17 17 17 16 16 16 16 17 18 18 18 18 17 17 17 17 17 17 18 18 19 19 20 21 22 23 23 24 25 26 27 28 29 30 31 32 33 34 34 34 32 31 31 31 31 30 28 27 25 24 24 24 24 24 25 25 25 24 23 22 21 19 19 18 17 17 17 16 16
14 14 14 16 17 18 18 18 17 17 16 17 17 17 16 16 17 17 17 17 17 16 16 17 17 18 19 18 17 17 16 16 16 16 16 16 16 16 17 18 19 19 20 21 22 23 24 25 26 27 28 28 29 30 32 33 32 31 30 29 29 30 29 28 27 25 23 23 23 23 22 23 23 24 23 23 22 20 20 19 18 18 17 17 17 17
14 15 16 17 17 18 18 19 19 19 18 18 18 18 17 17 17 18 18 18 18 17 17 17 18 18 19 19 18 17 16 15 15 15 15 15 15 15 16 16 17 17 18 19 21 22 22 23 24 24 25 25 26 28 30 31 30 29 28 27 27 27 27 28 26 24 23 23 22 21 21 21 21 22 22 22 21 20 19 19 19 18 18 18 17 17
15 16 16 17 17 18 19 20 20 20 19 18 18 17 17 17 17 18 18 18 18 17 17 17 17 18 19 19 18 17 16 15 15 15 15 15 16 16 16 16 16 16 17 18 19 20 20 21 22 23 23 23 24 26 28 28 28 27 27 26 25 25 26 27 26 24 23 23 21 20 19 19 20 21 21 21 20 20 19 19 19 19 18 18 18 18
16 16 16 17 18 19 20 20 20 20 19 18 18 17 17 17 17 17 18 18 17 17 16 16 17 17 18 18 18 17 16 16 15 15 16 16 17 17 17 17 16 16 16 17 17 18 19 20 21 22 22 22 23 25 26 26 26 26 26 25 24 24 25 25 24 23 23 22 20 19 18 19 19 20 21 21 21 20 20 20 20 19 19 18 19 19
15 15 16 17 18 18 19 19 19 19 19 19 18 18 18 17 17 17 17 17 16 16 16 16 16 17 18 19 18 18 18 18 17 17 17 17 17 17 17 17 16 16 16 16 17 17 18 19 20 20 21 22 23 24 25 24 25 25 25 24 23 23 23 23 22 21 20 20 19 18 18 18 19 20 21 22 22 22 21 21 20 20 19 19 19 19
15 15 16 17 17 18 18 18 18 18 19 19 19 18 17 17 16 17 17 16 16 16 16 16 17 18 19 19 19 20 20 21 21 20 19 19 18 17 17 17 16 16 16 16 17 17 17 18 18 19 20 21 23 24 24 23 23 24 24 23 22 22 22 22 20 19 18 18 17 17 17 18 19 20 22 22 23 23 23 22 21 20 19 19 19 19
15 15 16 16 17 17 17 17 17 18 19 19 18 17 17 16 16 16 16 16 15 15 15 16 17 18 20 20 21 22 22 23 24 23 22 20 19 17 16 16 16 16 17 17 17 17 18 18 18 18 19 20 22 23 24 23 22 22 22 21 20 21 21 20 19 17 17 16 16 16 16 17 19 21 22 24 25 26 25 24 22 21 20 19 19 20
14 14 15 15 16 16 16 16 17 17 18 18 18 17 16 16 16 16 16 16 15 15 14 15 16 17 19 20 22 23 24 25 26 25 23 21 18 16 15 15 15 16 17 17 18 18 19 19 19 18 18 19 20 22 22 22 21 20 19 19 18 18 19 18 17 16 16 16 16 16 17 18 19 20 22 24 26 27 27 26 24 22 20 20 20 20
13 13 13 14 15 15 16 16 17 17 17 17 17 17 16 16 17 17 17 16 15 14 14 14 15 17 19 21 23 24 25 26 26 25 22 19 17 15 15 14 15 16 17 18 19 20 20 20 20 19 18 17 18 19 20 20 19 18 17 17 16 16 16 17 17 17 16 17 17 17 18 18 19 20 22 24 26 27 28 27 26 24 22 21 20 21
12 13 13 14 14 15 15 16 16 16 16 16 16 16 15 15 15 16 16 16 16 16 16 16 18 19 22 23 24 25 25 25 24 22 20 18 16 15 15 15 15 17 18 20 20 20 20 21 21 21 20 18 17 17 18 18 18 18 17 17 16 15 16 17 17 17 17 18 18 19 19 20 21 21 22 24 26 28 29 29 28 26 24 23 22 22
Wind_Direction
293 296 299 303 308 314 317 317 314 309 303 300 300 304 311 316 319 320 321 323 324 325 326 327 329 331 332 333 335 336 338 340 342 344 346 348 351 353 356 357 357 357 358 359 360 0 1 2 2 1 1 360 359 357 356 354 353 351 349 348 348 349 351 353 352 347 344 343 345 347 347 345 343 342 344 5 27 50 66 66 61 54 46 38 33 29
294 296 299 303 309 314 318 318 314 308 300 295 294 297 303 308 312 314 315 317 318 319 320 321 321 323 324 325 326 327 328 329 330 332 333 335 338 341 343 346 347 348 349 351 352 354 355 356 357 358 358 358 358 357 357 355 354 352 350 347 345 344 344 344 343 340 337 335 336 338 342 343 340 335 333 344 17 53 65 63 61 58 52 43 35 28
294 297 300 304 309 314 318 319 316 308 298 290 287 289 296 301 304 307 311 313 314 314 315 315 316 317 319 320 321 321 322 322 322 322 323 324 325 328 330 332 334 336 338 340 341 343 345 347 349 351 352 353 354 355 355 355 354 354 352 349 347 343 340 338 336 335 333 331 328 329 331 335 338 336 332 336 354 32 49 50 50 50 49 45 39 31
293 297 299 303 307 311 316 317 315 308 298 289 283 283 287 293 299 303 306 309 310 310 311 312 313 314 316 317 317 317 317 317 317 317 317 317 318 319 319 321 322 324 326 328 330 331 333 335 337 340 342 344 347 348 350 351 351 352 352 351 349 346 343 339 336 333 331 328 326 325 325 326 330 332 334 336 338 342 355 17 32 38 39 39 38 36
292 295 297 301 305 308 310 313 312 307 298 289 282 280 282 287 292 296 300 303 305 307 308 309 311 312 313 314 314 314 314 314 314 314 314 314 314 314 314 314 314 315 316 317 319 321 323 325 327 329 332 334 336 339 341 342 344 345 347 347 347 347 345 343 340 337 334 331 329 327 326 325 325 327 330 333 334 333 332 338 358 24 33 32 31 28
287 291 294 298 301 304 305 308 309 306 298 289 282 278 278 281 284 289 293 296 300 303 305 307 309 310 312 312 312 312 311 311 311 311 312 312 312 312 312 311 310 310 311 311 312 313 315 317 319 321 323 325 327 329 331 332 333 335 337 338 339 340 341 341 341 340 339 337 334 332 329 328 327 326 327 329 331 331 331 329 332 348 17 28 29 26
284 287 290 294 296 298 299 302 304 302 296 288 281 277 276 277 281 286 291 293 296 300 303 305 308 310 311 312 311 310 309 309 308 309 310 310 310 311 310 310 309 308 308 307 308 308 309 310 312 314 316 318 319 321 322 323 324 325 326 327 328 329 331 333 334 335 336 336 335 334 332 330 329 328 327 328 329 330 331 331 330 329 340 12 24 26
282 285 288 291 293 293 294 297 298 298 294 287 280 274 273 276 281 287 291 294 296 299 302 304 307 310 312 312 311 310 308 307 306 307 308 308 309 309 309 308 308 307 307 306 306 306 306 307 308 309 311 312 314 315 316 317 317 318 318 317 318 318 319 321 322 324 326 327 328 328 329 329 328 328 327 327 328 329 330 332 332 330 329 337 355 10
279 283 287 289 290 291 292 294 296 296 293 287 280 274 272 275 279 284 290 297 300 301 303 305 307 310 311 312 311 309 307 305 305 304 305 306 306 306 306 306 306 306 305 305 305 305 304 304 306 307 308 309 310 310 312 312 312 313 312 312 312 311 312 312 313 314 315 316 318 319 321 322 323 324 324 325 325 326 327 329 330 331 330 327 328 334
272 276 281 284 286 287 289 292 295 296 294 289 280 273 272 275 278 282 288 295 300 302 302 304 307 308 309 309 307 306 305 304 303 302 303 304 304 304 304 304 304 304 304 304 304 304 303 303 304 306 307 307 307 307 308 309 309 309 309 309 308 308 307 307 308 309 309 310 311 312 313 314 315 317 318 320 320 322 322 323 325 327 327 326 325 325
269 272 275 278 280 283 286 288 292 294 294 289 280 273 270 273 277 282 288 294 297 299 300 301 304 306 307 306 303 302 301 301 301 301 301 302 303 303 303 303 303 303 303 303 304 304 304 304 304 306 307 306 306 306 306 307 307 307 306 306 306 305 305 305 305 306 306 307 307 308 309 310 311 312 313 314 316 316 317 318 320 320 322 323 323 324
276 278 278 276 276 279 282 285 288 290 289 286 281 277 274 273 277 283 291 296 299 299 299 299 300 303 304 304 301 299 297 297 298 299 300 300 301 302 302 302 302 302 302 303 304 304 304 304 305 306 306 306 306 306 306 306 306 305 305 305 304 304 304 304 304 304 304 305 306 306 307 308 309 310 311 311 312 313 314 315 315 317 318 318 320 321
281 282 280 278 277 278 280 284 288 290 290 286 282 280 278 279 283 289 294 297 299 299 299 299 301 302 302 301 300 298 295 293 294 296 297 298 298 298 299 300 301 300 300 300 301 302 303 304 304 306 306 306 306 305 306 306 306 306 305 305 304 304 304 303 304 304 304 304 304 305 306 306 307 308 309 310 311 311 312 313 313 314 315 317 318 319
276 278 280 281 283 285 287 292 297 298 297 289 280 275 275 281 288 294 297 298 298 297 298 300 302 303 301 300 299 298 295 293 292 293 295 297 297 296 296 298 298 298 297 298 299 299 300 302 303 304 305 305 305 305 305 306 306 305 305 305 305 305 305 305 304 304 304 304 304 304 304 305 305 306 307 308 309 310 310 311 311 312 313 314 315 316
270 273 275 279 284 290 297 303 305 302 293 286 281 278 279 285 290 294 297 298 298 297 297 298 299 300 299 300 299 297 295 294 293 292 293 296 297 296 295 296 296 296 296 297 297 297 298 300 301 303 304 305 305 306 306 306 306 306 306 306 306 306 306 306 306 305 305 305 304 304 304 304 304 305 306 307 307 308 309 309 310 310 311 311 312 313
273 273 271 271 274 281 289 294 292 286 280 278 278 280 283 287 290 292 295 297 297 297 297 297 297 297 297 297 296 296 296 296 295 294 294 297 298 298 295 295 295 294 295 296 296 296 296 298 299 301 302 304 305 306 306 306 307 306 307 307 307 308 308 307 307 307 307 306 306 305 304 304 304 304 305 305 306 306 307 308 308 309 309 309 310 311
275 276 274 271 269 271 277 270 265 263 265 268 272 275 279 283 286 290 294 296 297 297 297 297 298 300 301 299 295 294 297 298 298 296 295 297 299 299 296 296 295 294 293 294 294 294 295 296 298 299 301 303 305 306 306 307 307 307 307 308 308 308 309 309 309 308 308 308 307 306 306 305 305 304 304 304 305 305 306 307 307 308 308 308 309 309
275 278 276 271 266 263 262 257 255 256 259 264 270 275 278 282 286 290 294 296 297 298 298 299 300 302 305 306 301 298 299 301 300 298 297 298 299 300 298 296 295 293 292 293 293 293 293 295 296 298 300 302 303 304 305 306 306 306 307 307 308 308 309 309 310 310 310 309 309 308 307 307 306 305 305 304 304 305 305 306 306 307 308 308 308 308
274 274 271 266 258 249 242 246 252 258 262 266 270 275 281 285 290 294 297 298 299 300 301 302 302 302 304 305 303 302 302 303 303 301 300 300 301 301 299 298 297 295 292 293 293 293 293 294 295 297 298 299 300 301 303 304 305 305 306 306 307 308 309 309 310 310 310 311 310 310 309 308 307 307 306 305 305 305 305 305 306 306 307 307 307 308
267 265 263 260 254 246 242 246 253 258 261 264 268 273 280 287 292 296 299 300 300 300 300 301 302 303 303 304 304 304 303 304 304 303 302 302 303 303 301 300 299 297 294 294 294 294 294 294 295 296 297 297 297 298 300 302 303 304 304 305 306 307 308 308 309 310 310 311 311 311 310 310 309 308 307 307 306 306 306 306 306 307 307 306 306 307
263 261 262 262 259 254 251 255 260 262 264 267 271 275 279 283 288 293 296 298 298 299 300 300 301 302 303 305 306 305 304 304 304 304 303 302 302 303 303 302 300 299 297 296 296 295 295 296 297 298 298 297 296 296 298 300 302 302 303 303 304 305 306 307 307 309 309 310 310 310 310 310 310 309 309 309 308 308 308 308 308 309 308 308 307 307
302 293 287 285 280 275 272 273 273 274 276 277 279 281 283 285 287 290 294 296 297 298 299 300 301 302 303 304 304 304 302 301 302 303 303 302 302 304 304 303 302 301 300 299 297 296 297 298 299 300 300 298 297 296 297 299 300 301 301 301 302 303 304 304 305 306 307 307 308 309 309 309 310 310 310 310 310 310 310 311 311 311 311 310 309 309
331 318 314 309 304 298 293 288 286 285 286 287 288 289 289 290 291 293 296 296 297 298 299 299 299 299 301 302 303 302 300 299 300 302 303 302 304 305 305 303 303 302 301 300 299 298 299 300 302 302 301 299 298 297 297 298 299 299 299 300 300 301 301 302 303 303 304 305 305 306 307 308 308 308 309 309 310 310 311 312 312 313 313 312 311 311
327 314 309 310 312 313 309 303 300 299 299 299 298 297 297 294 294 295 296 296 296 297 298 297 297 297 300 302 304 304 301 301 302 303 304 304 305 306 306 305 304 304 302 301 300 301 301 302 303 303 301 300 298 297 296 297 297 298 298 298 298 299 300 300 300 301 301 302 302 303 304 305 306 306 307 308 309 310 311 312 312 313 313 313 313 312
314 312 312 317 321 319 313 307 305 306 307 306 305 303 301 298 298 298 298 297 297 298 297 297 298 301 305 309 311 310 306 305 306 306 306 306 307 307 307 307 307 305 303 301 301 301 302 303 302 302 300 299 298 298 297 297 297 297 297 297 298 298 298 298 299 299 299 299 300 300 301 302 302 303 304 305 306 308 309 310 311 312 312 312 312 312
303 305 307 308 307 304 299 297 298 300 302 302 301 299 298 297 296 297 297 298 298 299 299 300 302 304 306 309 311 310 308 307 307 307 308 308 308 307 307 308 308 306 304 303 302 302 303 303 302 301 300 299 299 298 298 298 299 299 299 299 299 299 298 298 298 298 298 298 298 298 298 298 298 299 299 301 303 304 306 307 308 309 309 309 309 309
292 292 292 292 291 290 290 291 293 295 295 295 294 293 293 291 291 290 290 292 295 296 297 299 301 302 302 302 304 305 305 305 304 305 308 307 306 305 306 308 308 307 305 304 304 304 304 303 303 302 301 300 299 299 299 300 301 302 302 301 301 300 299 298 297 297 297 296 296 296 295 295 295 295 296 297 299 300 302 303 304 305 305 306 306 306
292 292 291 291 291 292 293 294 295 295 294 292 291 291 290 290 290 289 290 290 291 293 294 297 300 301 300 299 300 301 301 300 299 301 304 304 301 301 304 306 307 305 305 305 304 303 303 303 303 302 301 299 299 300 301 303 303 304 303 303 302 301 300 299 298 297 296 296 295 295 294 293 293 293 293 294 295 297 298 299 300 300 301 301 301 302
300 300 300 300 300 300 300 300 299 298 296 295 293 292 291 292 292 292 291 291 291 292 294 298 299 298 297 297 299 301 300 296 295 297 300 298 296 296 301 303 303 303 304 305 304 302 302 302 302 302 300 299 300 301 303 304 304 304 303 302 302 301 300 299 297 297 296 296 295 295 293 293 292 292 293 293 294 295 295 296 296 296 296 297 297 297
303 306 307 309 309 308 307 306 304 302 300 298 297 296 294 293 293 292 292 292 292 292 294 296 296 295 295 298 300 301 299 294 293 294 295 294 293 295 299 300 300 301 304 306 305 303 302 302 301 300 299 299 300 301 302 303 304 303 302 302 301 300 300 299 298 297 297 296 296 295 294 293 293 293 293 293 294 294 294 294 294 294 294 293 293 293
301 303 307 310 311 311 310 309 308 306 304 303 301 300 298 295 294 293 292 292 292 291 293 293 293 293 294 296 298 297 294 292 292 292 293 293 293 295 298 299 299 300 304 306 306 305 304 302 299 298 298 298 299 299 300 301 302 302 301 301 301 300 300 300 299 298 297 297 296 295 294 294 293 294 294 294 294 294 294 293 293 293 292 292 291 290
301 302 305 307 309 309 310 310 310 308 307 307 306 305 303 300 298 296 294 293 292 292 292 291 291 291 291 292 291 290 288 290 291 291 293 293 294 295 298 298 298 299 301 302 302 302 302 300 298 296 296 297 297 297 298 299 299 299 299 300 300 300 301 301 300 299 298 297 296 295 294 294 293 294 294 294 294 294 294 293 293 293 293 291 290 288
303 304 305 306 307 308 308 309 309 309 309 310 310 309 308 305 303 301 299 297 295 294 293 292 291 290 289 288 287 286 285 286 288 291 293 293 293 294 296 296 296 296 297 297 297 296 295 295 295 295 295 295 295 296 296 297 297 297 297 298 299 299 300 301 300 299 298 297 296 295 294 293 292 292 293 293 293 293 293 293 293 293 293 292 290 288
303 304 305 306 307 308 308 309 309 310 310 311 311 310 309 308 307 306 304 303 300 298 296 294 293 292 291 289 288 286 284 283 285 289 291 291 291 292 293 293 293 293 294 294 293 292 292 292 293 294 293 293 293 293 294 295 295 294 294 295 297 298 299 300 300 299 298 297 296 294 293 292 291 291 291 291 291 291 291 292 292 293 293 292 291 288
303 304 306 307 308 308 309 310 311 312 312 312 311 310 309 308 307 307 306 306 304 303 301 298 297 295 294 292 291 290 288 286 286 287 289 289 290 291 292 292 291 292 293 292 292 291 291 291 291 292 292 292 291 291 291 292 292 291 291 292 294 296 298 298 299 298 298 297 296 295 293 292 291 290 290 289 289 289 289 290 291 291 292 291 290 289
304 305 307 308 310 311 313 314 316 316 316 315 313 311 309 307 306 306 305 305 304 302 301 300 299 297 296 294 294 293 293 292 292 291 290 290 291 292 293 292 291 292 293 292 291 291 291 291 290 290 290 290 290 290 289 289 289 288 288 289 290 292 294 295 296 296 297 297 296 294 293 292 291 290 289 289 288 288 288 289 289 290 289 289 288 288
307 309 310 311 312 314 316 318 319 320 319 317 315 312 311 309 307 306 305 304 302 300 299 297 296 296 295 295 295 295 295 297 297 296 294 294 294 293 293 292 292 292 292 291 291 291 291 290 290 290 290 289 289 290 289 288 287 286 285 286 287 288 289 291 292 294 295 295 295 294 293 292 291 290 290 289 289 288 288 288 287 286 286 285 285 285
311 313 314 313 313 314 315 317 319 319 318 316 315 314 313 311 309 308 307 305 303 301 299 297 296 294 293 293 294 295 296 297 298 297 296 296 296 294 293 293 293 292 291 290 290 290 289 289 289 290 290 289 289 289 289 289 287 286 285 284 285 285 286 287 289 291 292 292 293 293 293 292 292 291 291 290 289 289 288 287 285 283 281 280 280 280
312 313 313 312 311 311 311 313 314 315 314 313 313 313 313 312 311 309 308 306 304 303 302 300 299 296 295 294 293 294 295 295 295 295 295 295 294 293 293 292 292 292 291 290 289 288 287 287 287 288 289 290 290 289 289 288 288 287 285 284 283 283 284 285 287 289 289 290 291 292 292 292 292 292 292 291 291 291 291 289 287 284 282 280 279 277
308 309 308 308 307 307 308 309 310 311 310 310 310 310 310 310 309 308 307 306 305 304 304 303 302 300 298 298 297 297 297 296 295 294 292 292 291 291 291 291 291 290 290 289 288 286 285 285 285 286 287 288 289 289 288 288 287 287 287 286 285 283 283 285 286 288 288 289 290 291 291 291 292 292 292 292 293 294 294 293 292 289 287 286 284 281
303 303 303 303 303 304 305 307 308 308 307 306 305 304 304 305 305 306 306 306 307 308 309 308 305 303 302 302 302 302 301 299 297 295 293 291 290 290 290 291 291 291 291 289 287 286 285 285 285 285 285 286 287 287 287 286 286 287 288 288 287 285 285 285 286 288 290 290 290 290 291 291 291 291 291 292 293 295 295 296 295 294 292 291 290 289
297 297 298 298 299 300 302 304 305 305 305 303 301 300 302 305 307 307 308 310 311 313 313 312 309 307 305 304 304 305 304 302 300 297 295 293 292 292 292 292 293 292 292 291 289 287 286 286 285 285 285 286 287 287 286 285 286 287 288 288 288 286 285 285 285 288 291 292 291 291 291 292 292 291 292 293 294 296 297 298 298 298 298 297 295 294
294 294 294 295 296 297 298 299 300 301 301 300 301 303 307 310 311 311 312 312 314 315 314 313 311 309 307 306 307 307 306 304 302 301 300 299 298 297 296 295 294 294 293 292 290 289 288 287 286 285 286 287 287 286 286 285 285 286 287 288 290 291 291 288 288 289 291 291 291 292 292 292 292 292 292 293 294 296 298 299 299 299 300 300 299 298
293 293 293 293 293 294 294 294 295 297 298 299 302 307 311 312 312 312 312 312 312 313 312 311 310 308 307 307 309 310 309 307 307 307 307 307 306 303 301 298 296 295 293 292 291 290 290 288 286 286 287 288 287 285 284 285 286 286 287 288 290 292 291 291 292 293 292 290 291 292 293 293 293 293 293 294 295 296 297 297 297 298 300 301 300 299
293 292 292 291 291 290 290 292 293 294 296 299 303 307 311 311 310 310 309 310 310 310 310 309 309 308 307 308 310 312 311 311 311 313 314 313 311 309 306 303 300 297 295 292 291 291 291 290 289 288 288 287 285 284 284 285 287 287 287 289 291 291 289 291 293 294 292 291 292 293 295 295 296 297 297 296 296 296 296 296 296 297 299 300 301 301
291 289 287 287 287 287 289 291 292 293 294 297 301 305 308 309 309 308 308 308 309 309 308 308 309 310 311 312 313 313 313 313 315 317 318 317 315 313 310 306 303 300 297 295 293 292 291 290 291 291 291 288 285 283 284 286 287 288 288 290 291 291 290 291 292 293 292 292 293 294 296 297 297 298 298 298 296 295 294 294 295 297 298 299 300 299
286 282 281 283 284 286 287 288 289 290 291 294 298 303 306 308 309 308 307 307 307 308 309 310 312 313 313 314 314 314 313 313 315 317 318 318 316 314 311 308 306 303 300 298 297 295 294 292 292 292 291 289 287 286 286 287 288 289 291 292 292 291 289 290 291 292 292 293 294 296 298 297 297 298 299 298 297 295 293 293 294 295 297 298 298 297
286 281 280 282 283 284 284 285 286 287 288 292 296 300 304 306 308 308 308 308 308 309 312 315 316 315 313 312 310 308 308 308 311 314 316 317 316 314 311 309 306 305 303 301 300 299 297 295 293 291 289 288 288 288 289 290 290 291 292 293 292 290 288 289 290 292 292 293 295 297 299 299 299 300 301 300 298 296 295 295 294 294 295 296 296 296
291 286 283 283 283 281 281 283 284 284 285 289 293 298 301 304 306 307 310 310 309 310 311 312 311 308 305 301 299 298 300 302 305 309 312 314 315 314 312 309 308 307 306 305 303 302 300 297 293 289 287 287 288 290 292 293 294 294 294 293 291 290 289 290 291 292 293 294 296 298 298 298 298 299 301 301 299 298 297 296 295 294 295 295 295 295
298 296 294 291 287 283 282 282 282 283 284 288 292 295 299 302 305 307 309 309 307 303 298 294 291 288 287 286 288 291 295 299 303 306 309 312 314 313 312 311 312 312 311 309 307 305 304 301 297 293 290 289 290 293 295 297 298 297 294 292 291 291 292 292 293 294 295 296 298 299 299 299 300 301 302 302 301 300 299 297 296 295 296 296 295 294
301 303 304 303 300 296 292 288 286 286 286 289 291 294 297 300 302 303 303 301 298 293 289 285 281 280 283 286 290 293 296 299 302 305 308 311 313 313 314 315 316 316 314 311 310 309 309 307 305 302 299 296 295 297 298 301 302 301 298 295 295 295 294 295 296 298 300 300 301 302 303 302 303 303 304 304 303 302 301 300 299 298 298 298 297 295